sat.trackr.live / text

‹ back to catalog

GLOBALSTAR M072

NORAD 31574 · 2007-020D

PAYLOAD ACTIVE UNKNOWN

§ Identity

Operator
Country
GLOB
Launch date
2007-05-29
Launch site
TYMSC
Launch vehicle
Mass (kg)
RCS (m²)
2.27

Purposes: comms

External: N2YO · Heavens-Above · Gunter

§ Orbital elements

Epoch: 2026-09-19T06:31:34.974048Z

Period
120.84 min
Inclination
51.9920°
Eccentricity
0.0001334
Mean motion
11.91659952 rev/d
Perigee alt
1,717.3 km
Apogee alt
1,719.5 km
Semi-major
8,096.6 km
B*
-1.7025e-4
RAAN
209.7657°
Arg perigee
110.1120°
Mean anomaly
57.3763°
Rev number
88,619

§ Raw data

GLOBALSTAR M0721 31574U 07020D   26262.27193257 -.00000096  00000+0 -17025-3 0  99972 31574  51.9920 209.7657 0001334 110.1120  57.3763 11.91659952886192

JSON: /api/v1/satellites/31574 · /tle

For live sub-satellite position, see the globe view (requires WebGL).

§ Visibility from observer

Set your observer location to see the next 7 days of passes ≥ 10°. The values pass through the URL so the page stays shareable.

No JS? Fill the form by hand. The geolocation button needs JavaScript.